RYR221H EPWR-LDDU

Flight info

Callsign RYR221H
Flight time 1h 31m
Altitude 39000
Route PEKOT1K PEKOT DCT DESEN DCT LABUK DCT XENAK DCT VEBAL/N0456F360 DCT AGLIB/N0454F370 DCT EDALA DCT NETKO NETKO1Z
Aircraft B738/H-V/N

Departure

Time 2026-05-04 08:08
Airport Copernicus Wrocław Airport (EPWR)

Arrival

Time 2026-05-04 09:39
Airport Dubrovnik Ruđer Bošković Airport (LDDU)
Time Latitude Longitude Altitude Speed Heading
2026-05-04 07:57 51.10868 16.87990 402 ft 0 kts 26°
2026-05-04 08:00 51.10863 16.87985 400 ft 2 kts 23°
2026-05-04 08:02 51.10788 16.88004 401 ft 0 kts 308°
2026-05-04 08:02 51.10783 16.88026 400 ft 2 kts 253°
2026-05-04 08:02 51.10791 16.88049 399 ft 2 kts 229°
2026-05-04 08:03 51.10802 16.88068 396 ft 2 kts 210°
2026-05-04 08:03 51.10818 16.88074 397 ft 2 kts 172°
2026-05-04 08:03 51.10832 16.88068 401 ft 0 kts 156°
2026-05-04 08:04 51.10818 16.88074 397 ft 4 kts 176°
2026-05-04 08:04 51.10773 16.88077 401 ft 8 kts 159°
2026-05-04 08:04 51.10736 16.88155 402 ft 11 kts 116°
2026-05-04 08:04 51.10697 16.88287 402 ft 15 kts 114°
2026-05-04 08:05 51.10645 16.88462 402 ft 19 kts 115°
2026-05-04 08:05 51.10579 16.88677 399 ft 24 kts 116°
2026-05-04 08:05 51.10496 16.88942 402 ft 29 kts 115°
2026-05-04 08:05 51.10402 16.89250 401 ft 33 kts 116°
2026-05-04 08:06 51.10317 16.89534 401 ft 30 kts 116°
2026-05-04 08:06 51.10218 16.89850 399 ft 34 kts 116°
2026-05-04 08:06 51.10173 16.89967 402 ft 10 kts 154°
2026-05-04 08:06 51.10094 16.89934 401 ft 15 kts 206°
2026-05-04 08:08 51.11701 16.83761 2691 ft 163 kts 293°
2026-05-04 08:08 51.12229 16.81995 3145 ft 195 kts 299°
2026-05-04 08:10 51.18417 16.61630 8892 ft 280 kts 298°
2026-05-04 08:11 51.19790 16.59399 9693 ft 294 kts 327°
2026-05-04 08:11 51.23868 16.58956 11298 ft 311 kts 16°
2026-05-04 08:11 51.25840 16.60557 11841 ft 329 kts 39°
2026-05-04 08:12 51.27285 16.63537 12025 ft 353 kts 67°
2026-05-04 08:12 51.27894 16.67433 12221 ft 372 kts 89°
2026-05-04 08:12 51.27633 16.71558 12449 ft 386 kts 109°
2026-05-04 08:12 51.26512 16.75447 12963 ft 388 kts 129°
2026-05-04 08:13 51.24649 16.78525 13689 ft 383 kts 147°
2026-05-04 08:13 51.22368 16.80728 14390 ft 382 kts 156°
2026-05-04 08:13 51.19993 16.82535 15018 ft 385 kts 159°
2026-05-04 08:13 51.17524 16.84278 15638 ft 389 kts 160°
2026-05-04 08:14 51.15034 16.86039 16247 ft 393 kts 159°
2026-05-04 08:14 51.12536 16.87852 16891 ft 396 kts 159°
2026-05-04 08:14 51.10032 16.89719 17576 ft 399 kts 158°
2026-05-04 08:16 50.91967 17.03678 21151 ft 427 kts 156°
2026-05-04 08:16 50.89284 17.05753 21610 ft 430 kts 156°
2026-05-04 08:16 50.86565 17.07853 22070 ft 434 kts 156°
2026-05-04 08:17 50.83835 17.09959 22516 ft 438 kts 156°
2026-05-04 08:17 50.81074 17.12085 22941 ft 441 kts 156°
2026-05-04 08:17 50.78329 17.14196 23375 ft 445 kts 156°
2026-05-04 08:17 50.75533 17.16344 23693 ft 450 kts 156°
2026-05-04 08:19 50.56467 17.30913 26163 ft 463 kts 156°
2026-05-04 08:19 50.53554 17.33127 26497 ft 465 kts 156°
2026-05-04 08:20 50.50637 17.35342 26852 ft 467 kts 156°
2026-05-04 08:20 50.47690 17.37576 27138 ft 470 kts 156°
2026-05-04 08:20 50.44773 17.39785 27439 ft 472 kts 156°
2026-05-04 08:20 50.41810 17.42026 27772 ft 473 kts 156°
2026-05-04 08:21 50.38839 17.44262 28114 ft 473 kts 157°
2026-05-04 08:21 50.35802 17.46302 28530 ft 472 kts 161°
2026-05-04 08:21 50.32749 17.48173 28987 ft 470 kts 160°
2026-05-04 08:21 50.29716 17.49906 29402 ft 468 kts 166°
2026-05-04 08:22 50.26534 17.50955 29755 ft 465 kts 174°
2026-05-04 08:22 50.23312 17.51289 30145 ft 462 kts 183°
2026-05-04 08:24 50.01182 17.48102 32563 ft 454 kts 188°
2026-05-04 08:24 49.98026 17.47665 32840 ft 455 kts 188°
2026-05-04 08:24 49.94861 17.47231 33099 ft 456 kts 187°
2026-05-04 08:24 49.91734 17.46804 33415 ft 455 kts 187°
2026-05-04 08:25 49.88568 17.46371 33764 ft 454 kts 187°
2026-05-04 08:25 49.85419 17.45941 34083 ft 453 kts 187°
2026-05-04 08:25 49.82273 17.45509 34334 ft 453 kts 188°
2026-05-04 08:25 49.79127 17.45076 34576 ft 453 kts 187°
2026-05-04 08:26 49.76010 17.44648 34770 ft 455 kts 188°
2026-05-04 08:27 49.54079 17.41665 36533 ft 450 kts 188°
2026-05-04 08:28 49.50959 17.41243 36740 ft 451 kts 188°
2026-05-04 08:28 49.47824 17.40856 36951 ft 451 kts 187°
2026-05-04 08:28 49.44691 17.40568 37207 ft 450 kts 185°
2026-05-04 08:28 49.41562 17.40327 37457 ft 449 kts 185°
2026-05-04 08:29 49.38438 17.40098 37662 ft 449 kts 185°
2026-05-04 08:29 49.35315 17.39866 37863 ft 449 kts 186°
2026-05-04 08:29 49.32185 17.39628 38055 ft 449 kts 186°
2026-05-04 08:31 49.10408 17.37862 39071 ft 449 kts 186°
2026-05-04 08:33 48.85258 17.35824 39077 ft 453 kts 185°
2026-05-04 08:35 48.60150 17.33812 39082 ft 450 kts 186°
2026-05-04 08:35 48.53893 17.33312 39089 ft 449 kts 185°
2026-05-04 08:37 48.32121 17.31588 39094 ft 447 kts 185°
2026-05-04 08:38 48.25928 17.31100 39108 ft 447 kts 186°
2026-05-04 08:38 48.19701 17.30612 39097 ft 448 kts 186°
2026-05-04 08:40 47.94604 17.29944 39092 ft 454 kts 182°
2026-05-04 08:41 47.88300 17.29966 39091 ft 455 kts 182°
2026-05-04 08:41 47.81940 17.29961 39091 ft 456 kts 182°
2026-05-04 08:42 47.75605 17.29949 39075 ft 457 kts 182°
2026-05-04 08:42 47.69237 17.29939 39085 ft 457 kts 182°
2026-05-04 08:43 47.62855 17.29929 39093 ft 458 kts 182°
2026-05-04 08:43 47.56480 17.29920 39092 ft 458 kts 182°
2026-05-04 08:44 47.50141 17.29911 39096 ft 458 kts 182°
2026-05-04 08:46 47.24713 17.29874 39104 ft 456 kts 182°
2026-05-04 08:46 47.18361 17.29866 39104 ft 456 kts 182°
2026-05-04 08:47 47.12006 17.29857 39106 ft 456 kts 182°
2026-05-04 08:47 47.05690 17.29848 39111 ft 456 kts 182°
2026-05-04 08:48 46.99332 17.29839 39118 ft 456 kts 182°
2026-05-04 08:48 46.92965 17.29829 39124 ft 456 kts 182°
2026-05-04 08:49 46.86643 17.29820 39129 ft 457 kts 182°
2026-05-04 08:50 46.64376 17.29790 39132 ft 458 kts 181°
2026-05-04 08:51 46.57995 17.29781 39131 ft 458 kts 181°
2026-05-04 08:51 46.51643 17.29772 39131 ft 458 kts 181°
2026-05-04 08:52 46.45253 17.29763 39123 ft 458 kts 182°
2026-05-04 08:52 46.38895 17.29755 39136 ft 458 kts 182°
2026-05-04 08:54 46.13358 17.29719 39136 ft 460 kts 182°
2026-05-04 08:55 46.06951 17.29711 39141 ft 460 kts 182°
2026-05-04 08:55 46.00578 17.29702 39134 ft 460 kts 182°
2026-05-04 09:01 45.33643 17.18664 39150 ft 463 kts 189°
2026-05-04 09:01 45.27224 17.17595 39149 ft 463 kts 189°
2026-05-04 09:02 45.20851 17.16535 39146 ft 462 kts 189°
2026-05-04 09:02 45.14430 17.15692 39146 ft 464 kts 181°
2026-05-04 09:03 45.08058 17.17104 39165 ft 467 kts 166°
2026-05-04 09:03 45.01781 17.19565 39150 ft 467 kts 166°
2026-05-04 09:04 44.95494 17.22020 39161 ft 468 kts 166°
2026-05-04 09:04 44.89221 17.24401 39156 ft 469 kts 167°
2026-05-04 09:05 44.82918 17.26759 39152 ft 470 kts 167°
2026-05-04 09:05 44.76573 17.29124 39157 ft 471 kts 167°
2026-05-04 09:06 44.70255 17.31476 39157 ft 472 kts 166°
2026-05-04 09:08 44.45860 17.40515 39156 ft 476 kts 167°
2026-05-04 09:08 44.39430 17.42884 39143 ft 476 kts 167°
2026-05-04 09:09 44.33050 17.45231 39163 ft 477 kts 167°
2026-05-04 09:09 44.26605 17.47596 39157 ft 477 kts 167°
2026-05-04 09:10 44.20141 17.49646 39139 ft 475 kts 175°
2026-05-04 09:10 44.13610 17.50590 39162 ft 474 kts 177°
2026-05-04 09:11 44.07018 17.51429 39162 ft 474 kts 176°
2026-05-04 09:11 44.00471 17.52332 39150 ft 475 kts 176°
2026-05-04 09:12 43.93896 17.53286 39154 ft 475 kts 176°
2026-05-04 09:14 43.67566 17.57123 39157 ft 477 kts 176°
2026-05-04 09:14 43.60952 17.58079 39161 ft 477 kts 176°
2026-05-04 09:15 43.54336 17.59038 39164 ft 478 kts 176°
2026-05-04 09:15 43.47718 17.59992 39002 ft 482 kts 176°
2026-05-04 09:15 43.44361 17.60471 38754 ft 483 kts 176°
2026-05-04 09:17 43.17935 17.64249 35325 ft 477 kts 177°
2026-05-04 09:18 43.14610 17.64637 34651 ft 476 kts 184°
2026-05-04 09:18 43.11378 17.63924 33951 ft 467 kts 204°
2026-05-04 09:18 43.08508 17.61975 33265 ft 456 kts 220°
2026-05-04 09:18 43.06186 17.59176 32615 ft 445 kts 235°
2026-05-04 09:19 43.04439 17.55752 31966 ft 436 kts 247°
2026-05-04 09:19 43.03277 17.51942 31220 ft 428 kts 260°
2026-05-04 09:19 43.02804 17.48013 30515 ft 422 kts 269°
2026-05-04 09:19 43.02557 17.43985 29687 ft 428 kts 268°
2026-05-04 09:20 43.01828 17.39905 28770 ft 457 kts 249°
2026-05-04 09:20 43.00023 17.36207 27837 ft 477 kts 229°
2026-05-04 09:20 42.97407 17.33472 26941 ft 488 kts 210°
2026-05-04 09:20 42.94191 17.31961 26136 ft 490 kts 189°
2026-05-04 09:21 42.90810 17.31814 25522 ft 484 kts 178°
2026-05-04 09:21 42.87466 17.32085 24812 ft 479 kts 176°
2026-05-04 09:21 42.84150 17.32384 24126 ft 475 kts 176°
2026-05-04 09:21 42.80855 17.32642 23398 ft 470 kts 177°
2026-05-04 09:22 42.77604 17.32848 22669 ft 465 kts 178°
2026-05-04 09:22 42.74424 17.33024 22026 ft 458 kts 178°
2026-05-04 09:22 42.71262 17.33243 21360 ft 452 kts 173°
2026-05-04 09:22 42.68275 17.34421 20723 ft 445 kts 152°
2026-05-04 09:23 42.65742 17.36763 20096 ft 437 kts 137°
2026-05-04 09:23 42.63729 17.39820 19447 ft 430 kts 122°
2026-05-04 09:23 42.62273 17.43340 18823 ft 424 kts 115°
2026-05-04 09:23 42.60951 17.46859 18120 ft 421 kts 115°
2026-05-04 09:25 42.52056 17.69998 15334 ft 357 kts 115°
2026-05-04 09:25 42.50903 17.72949 15053 ft 349 kts 115°
2026-05-04 09:26 42.49784 17.75806 14973 ft 337 kts 115°
2026-05-04 09:26 42.48704 17.78561 14893 ft 325 kts 114°
2026-05-04 09:26 42.47971 17.81368 14789 ft 307 kts 92°
2026-05-04 09:26 42.48124 17.84119 14703 ft 290 kts 71°
2026-05-04 09:27 42.48963 17.86541 14535 ft 280 kts 54°
2026-05-04 09:27 42.50238 17.88518 14190 ft 278 kts 38°
2026-05-04 09:27 42.51918 17.89945 13408 ft 292 kts 26°
2026-05-04 09:27 42.53881 17.90653 12611 ft 298 kts
2026-05-04 09:28 42.55933 17.90146 11876 ft 305 kts 340°
2026-05-04 09:28 42.57714 17.88612 11190 ft 310 kts 319°
2026-05-04 09:28 42.58993 17.86233 10521 ft 314 kts 301°
2026-05-04 09:28 42.60009 17.83601 9835 ft 314 kts 299°
2026-05-04 09:29 42.60987 17.80989 9107 ft 314 kts 298°
2026-05-04 09:29 42.61947 17.78330 8396 ft 313 kts 298°
2026-05-04 09:29 42.62964 17.75719 7692 ft 311 kts 300°
2026-05-04 09:29 42.64000 17.73145 7036 ft 309 kts 300°
2026-05-04 09:30 42.65027 17.70608 6473 ft 302 kts 304°
2026-05-04 09:30 42.66424 17.68645 6190 ft 284 kts 329°
2026-05-04 09:30 42.68217 17.67708 5938 ft 274 kts 351°
2026-05-04 09:30 42.70101 17.67632 5685 ft 269 kts
2026-05-04 09:31 42.71878 17.68373 5446 ft 267 kts 25°
2026-05-04 09:31 42.73526 17.69517 5188 ft 265 kts 27°
2026-05-04 09:31 42.75045 17.70912 4918 ft 264 kts 46°
2026-05-04 09:31 42.75911 17.73056 4657 ft 264 kts 76°
2026-05-04 09:32 42.75775 17.75518 4411 ft 264 kts 108°
2026-05-04 09:32 42.75090 17.77830 4177 ft 262 kts 111°
2026-05-04 09:34 42.69578 17.92945 3474 ft 243 kts 118°
2026-05-04 09:34 42.68791 17.94921 3481 ft 232 kts 118°
2026-05-04 09:34 42.68049 17.96779 3487 ft 215 kts 118°
2026-05-04 09:34 42.67362 17.98508 3463 ft 200 kts 118°
2026-05-04 09:35 42.66710 18.00147 3486 ft 199 kts 118°
2026-05-04 09:35 42.66047 18.01812 3488 ft 200 kts 118°
2026-05-04 09:35 42.65387 18.03472 3498 ft 199 kts 118°
2026-05-04 09:35 42.64735 18.05112 3512 ft 195 kts 118°
2026-05-04 09:37 42.60619 18.15486 2069 ft 172 kts 122°
2026-05-04 09:37 42.60050 18.16921 1833 ft 173 kts 121°
2026-05-04 09:38 42.59475 18.18373 1581 ft 175 kts 119°
2026-05-04 09:38 42.58892 18.19852 1424 ft 181 kts 120°
2026-05-04 09:38 42.58283 18.21380 1066 ft 186 kts 120°
2026-05-04 09:38 42.57708 18.22834 959 ft 170 kts 118°
2026-05-04 09:39 42.57178 18.24211 743 ft 160 kts 118°
2026-05-04 09:39 42.56656 18.25520 533 ft 148 kts 118°
2026-05-04 09:39 42.56278 18.26470 532 ft 53 kts 118°
2026-05-04 09:39 42.56209 18.26625 533 ft 13 kts 143°
2026-05-04 09:40 42.56140 18.26573 533 ft 13 kts 236°
2026-05-04 09:40 42.56102 18.26467 533 ft 12 kts 265°
2026-05-04 09:40 42.56130 18.26364 533 ft 9 kts 298°
2026-05-04 09:40 42.56135 18.26337 533 ft 0 kts 259°
2026-05-04 09:41 42.56121 18.26326 533 ft 7 kts 198°
2026-05-04 09:42 42.56089 18.26304 533 ft 0 kts 208°